World > North America > United States > New York > West Park  

West Park, NY Hourly Weather Updates

Feedback E-mail the Weather

Quick Clicks

West Park, NY Weather Maps

°F °C°F °C
West Park Weather Map
UTC Time: 4/23/2024, 04:01
Your Time:

West Park, NY Regional Weather

Expires:202404230400;;217079
ASUS41 KALY 230310
RWRALY

NEW YORK STATE HOURLY WEATHER ROUNDUP
NATIONAL WEATHER SERVICE ALBANY NY
1100 PM EDT MON APR 22 2024

NOTE: "FAIR" INDICATES FEW OR NO CLOUDS BELOW 12,000 FEET WITH NO
SIGNIFICANT WEATHER AND/OR NO OBSTRUCTIONS TO VISIBILITY.


NYZ032-033-038>043-046>054-057>066-NYZ062>081-082-084-230400-
EAST

  
CITY           SKY/WX    TMP DP  RH WIND       PRES   REMARKS
ALBANY         CLEAR     46  21  37 CALM      30.12S                  
GLENS FALLS    CLEAR     38  28  67 CALM      30.10R                  
POUGHKEEPSIE   CLEAR     42  29  59 CALM      30.12R                  
NEWBURGH       CLEAR     46  28  49 NE3       30.12R                  
MONTGOMERY     CLEAR     39  33  79 CALM      30.11R                  
WHITE PLAINS   CLEAR     44  35  70 CALM      30.12R                  
ISLIP          PTCLDY    45  37  73 W3        30.13S                  
NEW YORK CITY  CLEAR     50  30  46 S7        30.13R                  
CENTRAL PARK   CLEAR     50  28  42 CALM      30.15S                  
$$


SKY/WX - Weather  TMP - Temperature  DP - Dew Point  RH - Humidity
WIND - Wind Direction/Speed PRES - Barometric Pressure VSB - Visibility
WCI - Wind Chill Index E13G22 Wind - East Wind 13 mph/Gusts of 22 mph

Trending Headlines

Trending Entertainment Headlines

West Park Radar Loop

Use the map search tool if you want to place a location marker on the radar map...

West Park Quick Facts

National Two Day Weather Forecast


E-mail the West Park Weather Forecast

Voice your opinion or tell us about page issues...